This demonstration page uses our WeatherBlox Daily Observations layout. Learn more.

Left ArrowRight Arrow

39.08367, -84.50855

Hourly Observations for May 7, 2019

Temp ( °F °C ) Dew Point ( °F °C ) Humidity (%) Winds ( mph kmh ) Pressure ( in mb ) Visibility ( mi km ) Precip ( " mm )
12:53 am 00:53 Clear 55 12.8 53 11.7 93 93 Calm 30.1 1019 10 16.0934 0 0
1:53 am 01:53 Clear 55 12.8 53 11.7 93 93 Calm 30.08 1019 10 16.0934 0 0
2:53 am 02:53 Clear 53 11.7 52 11.1 96 96 Calm 30.08 1019 10 16.0934 0 0
3:53 am 03:53 Clear 52 11.1 51 10.6 97 97 Calm 30.07 1018 10 16.0934 0 0
4:53 am 04:53 Clear 51 10.6 50 10 96 96 Calm 30.08 1019 9 14.48406 0 0
5:35 am 05:35 Clear with Mist and Fog 51 10.6 50 10 96 96 Calm 30.11 1020 1.75 2.816345 0 0
5:45 am 05:45 Clear with Mist and Fog 51 10.6 50 10 96 96 Calm 30.11 1020 3 4.82802 0 0
5:53 am 05:53 Clear 51 10.6 49 9.4 92 92 Calm 30.1 1019 7 11.26538 0 0
6:33 am 06:33 Sunny with Mist and Fog 50 10 49 9.4 96 96 Calm 30.13 1020 1.75 2.816345 0 0
6:49 am 06:49 Sunny with Mist and Fog 48 9 48 9 100 100 Calm 30.13 1020 0.75 1.207005 0 0
6:53 am 06:53 Sunny 49 9.4 48 8.9 97 97 Calm 30.11 1020 0.75 1.207005 0 0
6:56 am 06:56 Sunny with Patchy Fog 50 10 48 8.9 93 93 Calm 30.13 1020 7 11.26538 0 0
7:53 am 07:53 Sunny 54 12.2 53 11.7 97 97 Calm 30.14 1021 8 12.87472 0 0
8:53 am 08:53 Sunny 59 15 55 12.8 87 87 Calm 30.14 1021 10 16.0934 0 0
9:53 am 09:53 Sunny 65 18.3 57 13.9 76 76 Calm 30.15 1021 10 16.0934 0 0
10:53 am 10:53 Sunny 71 21.7 58 14.4 63 63 Calm 30.15 1021 10 16.0934 0 0
11:53 am 11:53 Sunny 76 24.4 55 12.8 48 48 Calm 30.14 1021 10 16.0934 0 0
12:53 pm 12:53 Sunny 76 24.4 52 11.1 43 43 ENE 3 6 30.12 1020 10 16.0934 0 0
1:53 pm 13:53 Sunny 78 25.6 55 12.8 45 45 VRB 5 7 30.09 1019 10 16.0934 0 0
2:53 pm 14:53 Mostly Sunny 79 26.1 52 11.1 39 39 SSW 3 6 30.08 1019 10 16.0934 0 0
3:53 pm 15:53 Mostly Sunny 79 26.1 53 11.7 41 41 SSW 6 9 30.07 1018 10 16.0934 0 0
4:53 pm 16:53 Mostly Sunny 77 25 54 12.2 45 45 S 3 6 30.08 1019 10 16.0934 0 0
5:53 pm 17:53 Mostly Sunny 74 23.3 59 15 60 60 SSW 6 9 30.08 1019 10 16.0934 0 0
6:53 pm 18:53 Mostly Cloudy 72 22.2 59 15 64 64 Calm 30.08 1019 10 16.0934 0 0
7:53 pm 19:53 Mostly Cloudy 71 21.7 61 16.1 71 71 Calm 30.07 1018 10 16.0934 0 0
8:53 pm 20:53 Mostly Cloudy 68 20 61 16.1 78 78 SSW 3 6 30.08 1019 10 16.0934 0 0
9:53 pm 21:53 Mostly Cloudy 65 18.3 58 14.4 78 78 NE 3 6 30.09 1019 10 16.0934 0 0
10:53 pm 22:53 Clear 65 18.3 56 13.3 73 73 NE 10 17 30.11 1020 10 16.0934 0 0
11:53 pm 23:53 Clear 63 17.2 54 12.2 73 73 NE 7 11 30.12 1020 10 16.0934 0 0

Powered by AerisWeather